Home   Weather   Iqaluit   Past weeks
Flag for Canada

Past Weather in Iqaluit, Nunavut, Canada — Yesterday and Last 2 Weeks

Now
30 °F

Broken clouds.


Feels Like: 21 °F
Forecast: 28 / 24 °F
Wind: 12 mph from Northwest

Location: Iqaluit

Current Time: Oct 18, 2019 at 12:40:22 pm

Latest Report: Oct 18, 2019 at 12:00 pm


Visibility: 30 mi

Pressure: 30.10 "Hg

Humidity: 69%

Dew Point: 21 °F

Location of IqaluitLocation

Past Weather in Iqaluit — Graph

°F

Iqaluit Temperature Yesterday

Maximum temperature yesterday: 36 °F (at 2:00 pm)
Minimum temperature yesterday: 27 °F (at 8:00 am)
Average temperature yesterday: 31 °F

High & Low Weather Summary for the Past Weeks

 TemperatureHumidityPressure
High43 °F (Oct 8, 11:00 am)100% (Oct 7, 5:17 am)30.24 "Hg (Oct 7, 5:17 am)
Low19 °F (Oct 14, 4:00 am)60% (Oct 11, 2:00 pm)29.36 "Hg (Oct 7, 3:00 pm)
Average33 °F83%29.87 "Hg
* Reported Oct 3 11:00 am — Oct 18 11:00 am, Iqaluit. Weather by CustomWeather, © 2019

Note: Actual official high and low records may vary slightly from our data, if they occured in-between our weather recording intervals... More about our weather records

Advertising

Iqaluit Weather History for the Previous 24 Hours

Scroll right to see more
 ConditionsComfort  
Time TempWeatherWind HumidityBarometerVisibility
11:00 am
Fri, Oct 18
28 °FPartly sunny.14 mph74%30.09 "Hg30 mi
10:00 am28 °FPartly sunny.9 mph69%30.08 "Hg30 mi
9:00 am27 °FOvercast.7 mph74%30.07 "Hg30 mi
8:00 am27 °FOvercast.9 mph69%30.05 "Hg30 mi
7:00 am27 °FOvercast.15 mph69%30.03 "Hg30 mi
6:00 am27 °FPassing clouds.13 mph74%30.01 "Hg15 mi
5:00 am27 °FPassing clouds.13 mph74%29.98 "Hg15 mi
4:00 am27 °FPassing clouds.16 mph74%29.95 "Hg15 mi
3:00 am28 °FLight snow. Partly cloudy.18 mph80%29.93 "Hg15 mi
2:00 am28 °FLight snow. Partly cloudy.20 mph86%29.91 "Hg15 mi
1:00 am28 °FPassing clouds.21 mph86%29.89 "Hg15 mi
12:00 am30 °FPartly cloudy.20 mph80%29.88 "Hg15 mi
11:21 pm
Thu, Oct 17
30 °FPassing clouds.16 mph80%29.87 "Hg15 mi
11:00 pm30 °FLight snow. Mostly cloudy.23 mph80%29.86 "Hg15 mi
10:00 pm30 °FLight snow. Mostly cloudy.22 mph86%29.85 "Hg15 mi
9:00 pm32 °FLight snow. Mostly cloudy.15 mph87%29.83 "Hg15 mi
8:00 pm30 °FLight snow. Mostly cloudy.8 mph93%29.83 "Hg10 mi
7:00 pm30 °FLight snow. Passing clouds.12 mph93%29.82 "Hg8 mi
6:00 pm32 °FLight snow. Mostly cloudy.9 mph93%29.81 "Hg5 mi
5:30 pm32 °FLight snow. Passing clouds.7 mph93%29.80 "Hg15 mi
5:00 pm32 °FBroken clouds.7 mph93%29.79 "Hg20 mi
4:02 pm34 °FLight snow. Partly sunny.8 mph87%29.78 "Hg20 mi
3:00 pm34 °FBroken clouds.8 mph81%29.78 "Hg30 mi
2:00 pm36 °FBroken clouds.9 mph70%29.77 "Hg30 mi
1:00 pm34 °FBroken clouds.3 mph75%29.77 "Hg30 mi
12:00 pm34 °FPartly sunny.2 mph75%29.77 "Hg30 mi
Weather by CustomWeather, © 2019

See weather overview